Wind_Speed
6 6 6 6 5 5 5 5 4 5 5 6 7 8 9 10 11 12 12 12 13 12 12 12 13 13 13 12 12 11 11 10 11 10 10 9 9 8 8 8 8 7 7
7 7 8 7 6 6 6 6 5 5 5 7 8 9 10 11 11 12 12 12 12 12 12 12 13 13 12 12 11 11 11 11 11 10 10 9 8 8 8 8 8 8 8
7 8 9 8 7 6 6 6 6 6 6 7 8 10 10 11 11 12 12 12 12 12 12 12 12 12 12 12 12 11 11 11 11 10 10 8 8 8 8 8 8 7 7
8 9 9 8 7 6 6 6 6 6 7 8 9 10 10 11 12 12 11 12 13 13 13 13 12 12 12 12 12 11 10 10 9 9 8 7 8 8 8 7 7 7 7
8 9 9 8 7 6 6 7 7 7 7 8 8 9 11 12 12 12 12 12 12 13 13 13 12 12 11 11 11 10 10 9 8 8 7 7 8 7 7 7 6 7 7
8 9 9 8 8 7 7 7 7 7 7 8 8 10 11 12 12 12 12 12 12 12 12 12 12 11 11 11 10 10 10 9 8 7 7 7 7 7 6 6 6 7 7
9 9 9 9 8 7 7 7 7 7 7 8 9 9 10 11 12 12 12 12 12 12 12 13 12 11 11 10 10 10 9 8 7 6 6 7 7 6 6 6 6 6 6
9 8 9 9 8 8 7 7 7 7 7 8 9 10 10 10 11 12 12 12 12 12 12 12 11 11 10 9 9 9 8 7 7 6 6 6 6 6 6 5 5 5 5
8 8 8 9 8 8 7 7 7 7 7 8 9 9 9 10 11 12 12 12 12 11 11 11 10 10 9 9 9 8 7 6 6 6 5 5 5 5 5 4 4 4 4
8 8 8 8 8 7 7 7 7 7 7 8 8 9 9 9 10 10 11 11 11 11 11 10 10 9 9 8 8 7 6 5 5 5 4 4 4 4 3 3 3 3 3
8 8 8 8 7 7 7 7 6 6 7 7 8 8 8 9 9 9 9 10 10 9 9 9 9 9 8 7 6 6 5 4 3 4 3 3 3 2 2 2 2 2 2
9 8 7 7 7 7 7 7 6 6 6 6 7 7 7 8 8 9 9 9 8 8 8 8 8 8 7 6 5 5 4 3 3 3 2 1 1 1 1 1 2 2 2
9 9 8 8 7 7 6 6 6 6 6 6 6 6 6 7 7 7 7 7 7 7 7 7 6 6 5 5 4 4 3 2 2 2 1 1 1 1 1 2 2 2 3
10 9 8 8 7 7 6 5 5 5 5 5 5 5 5 5 5 5 5 6 5 6 5 5 5 4 4 4 3 3 3 3 2 1 1 1 1 2 2 3 3 3 4
11 10 9 8 7 7 6 5 5 5 5 4 4 4 4 3 4 4 4 4 4 4 4 3 3 3 2 2 2 2 2 2 1 1 2 2 2 3 3 4 4 4 5
12 11 9 8 7 7 7 6 5 4 4 4 3 3 3 2 2 2 3 3 2 2 2 2 2 1 1 1 2 2 2 2 2 2 3 3 3 4 4 5 6 6 6
13 12 10 9 8 7 7 6 5 4 4 3 3 3 2 2 1 1 1 1 1 1 0 0 0 1 2 2 3 3 3 3 3 3 4 4 5 5 6 6 7 8 7
13 13 11 10 8 7 7 6 6 5 4 3 3 2 2 1 1 0 0 1 1 1 1 1 2 2 3 4 4 4 4 4 5 4 5 5 6 7 7 7 7 8 7
14 13 12 10 9 8 7 7 6 6 5 4 3 2 1 1 1 1 1 1 1 2 2 3 3 4 4 5 5 5 5 5 6 6 6 7 7 8 8 8 9 8 9
14 13 12 11 9 8 7 6 6 6 6 5 4 3 2 2 2 2 2 3 3 3 4 4 4 5 6 6 6 7 7 7 7 7 7 8 8 9 9 10 9 9 10
14 14 13 12 11 9 8 7 7 6 6 6 5 4 3 3 3 3 3 4 5 5 5 5 6 7 7 7 7 7 7 7 8 9 9 9 9 10 11 10 10 11 12
14 14 13 13 12 11 9 8 8 7 7 7 6 6 5 4 4 4 4 4 5 6 6 7 7 8 8 8 8 8 9 9 10 11 11 11 12 13 12 12 13 13 13
14 13 13 13 13 12 11 10 9 9 8 7 7 7 6 5 5 5 6 6 6 6 7 7 8 8 9 9 9 10 10 10 11 12 13 13 13 14 14 15 15 15 15
12 13 13 14 14 13 11 10 10 9 9 8 8 8 7 7 6 6 6 6 7 7 7 8 8 9 10 10 10 11 11 12 12 13 13 14 14 15 15 16 16 16 16
11 12 13 13 13 13 12 12 11 10 9 9 9 8 8 8 8 7 7 7 8 8 8 8 9 10 10 11 11 12 12 12 13 13 14 15 16 16 17 17 16 16 16
10 11 12 13 14 13 13 13 12 11 10 9 9 9 8 8 8 8 8 9 9 9 9 10 10 10 11 11 12 13 13 13 14 14 15 16 16 17 16 17 17 16 16
Wind_Direction
52 59 53 64 67 66 72 77 88 90 107 109 111 109 105 107 111 111 111 114 114 114 114 118 120 120 118 120 120 118 114 113 109 105 103 101 95 90 87 84 86 86 91
56 60 64 71 70 68 72 79 82 88 99 107 109 108 108 108 107 110 110 113 114 115 116 118 118 119 119 122 122 119 113 111 108 105 103 100 96 93 87 83 86 86 87
60 60 63 70 70 72 75 80 86 92 94 99 105 109 110 108 109 112 114 115 116 116 118 120 117 115 116 118 118 115 113 111 111 106 103 98 92 92 89 83 83 81 83
64 65 66 69 69 71 78 85 89 93 93 97 103 106 108 110 111 115 115 114 117 115 116 119 120 115 117 116 114 113 113 112 111 107 100 94 90 90 87 83 82 79 81
65 67 69 70 69 71 79 83 90 92 95 94 97 102 108 109 112 115 113 112 112 114 115 117 117 115 114 114 114 113 115 114 109 104 100 92 89 88 86 80 80 81 78
68 71 73 73 72 73 81 83 87 90 90 91 96 105 110 112 112 110 110 111 112 115 116 115 115 113 115 114 115 114 114 111 107 105 100 91 87 87 83 81 79 79 75
68 70 72 73 74 79 80 80 84 88 87 85 93 99 106 110 109 112 114 114 113 114 115 114 114 114 114 115 116 115 111 107 104 104 103 95 88 85 83 83 81 79 73
65 68 72 74 78 81 81 80 82 84 87 87 92 98 99 105 108 111 116 116 116 114 114 115 115 116 115 115 114 113 111 110 106 105 103 97 91 85 84 81 78 78 74
65 63 67 73 80 81 79 80 81 82 84 89 93 95 96 99 105 110 112 114 113 113 113 112 112 112 113 113 112 110 110 109 109 107 103 100 93 89 86 80 72 69 67
62 65 71 72 76 80 81 82 82 82 86 90 97 98 98 97 99 107 110 116 114 113 115 113 112 110 109 109 108 108 107 105 106 106 98 95 95 96 86 74 61 50 48
60 60 67 64 69 74 78 81 81 83 90 91 97 99 99 99 98 101 109 115 119 116 115 114 113 110 105 102 102 103 106 102 105 102 91 89 90 89 73 54 39 32 20
58 57 60 62 63 64 68 70 72 78 82 83 89 95 97 99 99 100 107 110 112 111 114 114 110 106 100 95 91 90 90 98 98 92 84 79 68 54 41 11 345 335 330
55 55 57 59 59 59 60 62 61 66 75 77 84 92 97 100 99 100 104 105 106 109 109 109 104 98 92 87 82 74 70 75 77 77 76 17 358 343 318 308 309 307 310
49 51 55 57 55 55 56 60 61 61 70 75 77 85 99 102 102 101 102 106 103 104 104 105 99 95 87 81 73 59 49 42 49 28 2 326 306 304 299 300 290 299 304
45 45 47 50 50 46 45 50 56 65 71 78 82 86 93 98 98 100 103 108 105 104 102 95 97 87 77 63 40 27 23 7 13 350 335 319 311 301 299 299 292 292 300
44 43 43 44 46 45 44 45 53 64 70 75 76 82 91 102 96 88 98 105 102 103 109 99 98 84 46 15 348 342 347 345 330 317 321 315 308 302 305 305 297 294 293
43 41 41 43 46 46 46 49 52 53 53 57 62 66 79 93 90 73 84 99 95 76 96 68 63 319 312 314 314 315 315 314 319 311 312 312 305 300 302 304 296 293 292
40 38 39 41 42 43 43 46 49 51 53 49 51 53 64 73 76 83 258 295 264 270 275 284 288 295 298 301 302 303 304 305 308 312 312 310 306 302 300 301 301 296 294
39 37 38 39 40 39 43 44 43 46 45 40 37 31 18 6 346 320 301 293 284 281 281 289 290 294 298 301 301 302 301 298 298 300 302 305 306 306 303 304 302 294 290
37 36 37 38 40 39 39 36 32 29 27 25 21 9 351 336 320 301 297 299 295 294 296 289 289 295 293 296 300 300 304 299 294 298 302 304 305 304 303 299 300 299 294
35 37 38 36 35 35 33 29 25 21 19 17 15 9 355 333 320 303 288 288 287 285 287 286 289 292 293 295 301 303 301 298 297 297 299 304 303 302 299 295 293 296 297
35 35 36 36 33 32 28 24 20 17 12 10 7 358 351 336 318 304 297 291 288 285 282 285 289 290 293 295 297 300 300 300 297 296 298 303 301 298 297 294 293 293 296
32 32 33 31 29 29 28 25 19 12 6 3 1 354 348 340 324 307 298 292 290 289 291 291 294 294 294 297 298 298 297 297 298 298 296 297 299 299 296 294 294 294 294
28 29 30 27 25 24 22 19 14 9 3 2 1 357 348 337 325 311 305 300 295 293 294 293 294 295 294 294 295 297 297 296 296 299 299 297 298 299 297 296 297 298 297
22 23 22 21 20 19 17 15 14 11 6 3 3 359 352 345 335 321 309 303 299 296 294 292 295 296 296 296 295 298 299 298 298 299 299 298 297 298 297 296 294 295 296
16 17 18 16 14 12 11 10 11 10 8 6 3 359 351 344 338 331 323 315 308 303 298 295 294 295 296 298 298 299 301 302 302 299 297 298 298 299 300 299 298 297 298
Height
5870 5869 5869 5869 5868 5868 5868 5868 5867 5867 5866 5866 5865 5865 5865 5865 5865 5865 5866 5867 5868 5869 5870 5870 5871 5873 5874 5875 5877 5878 5879 5880 5881 5882 5883 5884 5885 5885 5886 5886 5886 5886 5886
5871 5870 5870 5870 5870 5870 5869 5869 5869 5869 5868 5868 5867 5867 5867 5867 5867 5868 5868 5869 5870 5871 5872 5873 5874 5875 5876 5877 5878 5880 5881 5882 5883 5884 5885 5886 5886 5887 5887 5888 5888 5888 5888
5872 5872 5871 5871 5871 5871 5871 5871 5871 5870 5870 5869 5869 5868 5869 5869 5869 5870 5871 5871 5872 5873 5874 5875 5876 5877 5878 5879 5880 5882 5883 5883 5884 5885 5886 5887 5887 5888 5888 5889 5889 5889 5889
5874 5873 5873 5873 5873 5873 5873 5873 5872 5872 5872 5871 5871 5871 5870 5871 5871 5872 5873 5874 5874 5875 5876 5877 5878 5879 5880 5881 5882 5884 5885 5885 5886 5887 5888 5888 5889 5889 5890 5890 5890 5891 5891
5876 5875 5875 5875 5875 5875 5875 5874 5874 5874 5874 5873 5873 5873 5872 5873 5873 5874 5875 5876 5876 5877 5878 5879 5880 5881 5882 5883 5884 5885 5886 5887 5888 5889 5889 5890 5890 5890 5891 5891 5892 5892 5892
5878 5877 5876 5876 5876 5876 5876 5876 5876 5876 5875 5875 5875 5875 5874 5874 5875 5876 5877 5878 5879 5879 5880 5881 5882 5883 5884 5885 5886 5887 5888 5889 5890 5890 5891 5891 5892 5892 5892 5892 5893 5893 5893
5880 5879 5878 5878 5878 5878 5878 5878 5878 5878 5878 5877 5877 5877 5877 5877 5878 5878 5879 5880 5881 5882 5883 5884 5885 5885 5886 5887 5888 5889 5890 5891 5891 5892 5892 5892 5893 5893 5893 5893 5894 5894 5894
5882 5881 5881 5880 5880 5880 5880 5880 5880 5880 5880 5880 5880 5879 5880 5880 5880 5880 5881 5882 5883 5884 5885 5886 5887 5888 5888 5889 5890 5891 5892 5892 5893 5893 5893 5894 5894 5894 5895 5895 5895 5895 5895
5884 5883 5883 5883 5882 5882 5882 5882 5882 5882 5882 5882 5882 5882 5882 5883 5883 5883 5884 5884 5885 5886 5887 5888 5889 5890 5890 5891 5892 5892 5893 5893 5894 5894 5894 5895 5895 5895 5896 5896 5896 5896 5896
5886 5885 5885 5885 5884 5884 5884 5884 5884 5884 5884 5884 5884 5885 5885 5885 5885 5886 5886 5887 5888 5889 5889 5890 5891 5892 5892 5893 5893 5894 5894 5895 5895 5895 5895 5895 5896 5896 5896 5897 5897 5897 5897
5888 5887 5886 5887 5886 5886 5886 5886 5886 5886 5886 5886 5886 5887 5887 5887 5888 5888 5888 5889 5890 5891 5892 5892 5893 5893 5894 5894 5895 5895 5895 5896 5896 5896 5896 5896 5896 5897 5897 5897 5897 5897 5898
5890 5889 5889 5889 5888 5888 5888 5888 5888 5888 5888 5888 5888 5889 5889 5890 5890 5890 5891 5891 5892 5892 5893 5894 5894 5894 5895 5895 5896 5896 5896 5897 5897 5897 5897 5897 5897 5897 5897 5898 5898 5898 5898
5892 5892 5891 5890 5890 5890 5890 5890 5890 5890 5890 5890 5890 5891 5891 5892 5892 5892 5892 5893 5893 5894 5895 5895 5896 5896 5896 5897 5897 5897 5897 5897 5898 5897 5897 5897 5897 5898 5898 5898 5898 5898 5898
5895 5894 5893 5893 5892 5892 5892 5892 5891 5892 5891 5892 5892 5892 5893 5893 5893 5894 5894 5895 5895 5896 5896 5897 5897 5897 5898 5898 5898 5898 5898 5898 5898 5898 5898 5898 5897 5897 5897 5897 5897 5897 5897
5897 5896 5895 5895 5894 5894 5893 5893 5893 5893 5893 5893 5893 5894 5894 5894 5895 5895 5896 5896 5896 5897 5897 5898 5898 5898 5899 5899 5899 5899 5898 5898 5898 5898 5898 5898 5897 5897 5897 5897 5897 5896 5896
5899 5898 5897 5897 5896 5895 5895 5894 5894 5894 5893 5893 5894 5895 5895 5895 5895 5896 5896 5897 5897 5898 5898 5898 5899 5899 5899 5899 5899 5899 5899 5898 5898 5898 5898 5897 5897 5896 5896 5896 5896 5895 5895
5902 5901 5900 5899 5898 5897 5896 5896 5896 5895 5895 5895 5895 5895 5896 5896 5896 5897 5897 5897 5898 5898 5898 5899 5899 5899 5899 5899 5899 5899 5899 5898 5898 5897 5897 5897 5896 5895 5895 5895 5895 5894 5894
5904 5903 5902 5901 5900 5899 5898 5898 5897 5897 5897 5897 5896 5896 5896 5897 5897 5897 5897 5898 5898 5898 5898 5899 5899 5899 5899 5899 5899 5898 5898 5898 5897 5897 5896 5896 5895 5894 5894 5893 5893 5893 5892
5906 5905 5904 5903 5902 5901 5900 5899 5899 5898 5898 5898 5897 5897 5897 5897 5897 5897 5897 5898 5898 5898 5898 5899 5899 5899 5899 5898 5898 5898 5897 5897 5896 5896 5895 5895 5894 5893 5892 5892 5891 5891 5891
5908 5907 5906 5905 5904 5903 5902 5901 5901 5900 5899 5899 5898 5898 5898 5897 5897 5897 5898 5898 5898 5898 5898 5898 5898 5898 5897 5897 5897 5897 5896 5896 5895 5895 5894 5893 5892 5892 5891 5890 5890 5889 5889
5910 5909 5908 5907 5905 5904 5904 5903 5902 5901 5900 5900 5899 5898 5898 5897 5897 5897 5897 5897 5897 5897 5897 5897 5897 5897 5896 5896 5896 5895 5895 5894 5893 5893 5892 5892 5891 5890 5889 5888 5887 5887 5886
5912 5911 5910 5909 5907 5906 5905 5904 5903 5902 5901 5900 5899 5899 5898 5898 5897 5897 5897 5897 5896 5896 5896 5896 5895 5895 5895 5894 5894 5893 5893 5893 5891 5891 5890 5889 5888 5887 5886 5886 5885 5884 5883
5915 5913 5912 5910 5909 5907 5906 5905 5904 5903 5902 5901 5900 5899 5898 5897 5897 5896 5896 5896 5895 5895 5895 5894 5894 5893 5893 5893 5892 5892 5891 5890 5890 5889 5888 5887 5885 5885 5883 5883 5882 5881 5880
5916 5915 5914 5912 5910 5909 5907 5906 5904 5903 5902 5901 5900 5899 5898 5897 5896 5895 5895 5894 5894 5894 5893 5893 5893 5892 5891 5891 5890 5889 5889 5888 5887 5886 5885 5884 5883 5881 5880 5879 5878 5877 5876
5918 5917 5915 5914 5912 5910 5908 5907 5905 5903 5902 5901 5900 5899 5898 5897 5896 5895 5894 5893 5893 5892 5892 5891 5891 5890 5889 5889 5888 5887 5886 5885 5884 5883 5882 5881 5880 5878 5877 5876 5874 5873 5872
5919 5918 5916 5915 5913 5911 5910 5908 5906 5904 5903 5901 5900 5899 5898 5896 5895 5894 5893 5892 5891 5890 5890 5889 5888 5888 5887 5887 5886 5884 5883 5882 5881 5880 5879 5878 5876 5875 5873 5872 5871 5869 5869